Weather History for KMSS - November, 2012

Change the Weather History Date:

Saturday, November 24, 2012

  Actual Average Record
Temperature  
Mean Temperature 34 °F 32 °F  
Max Temperature 41 °F 40 °F 70 °F (2014)
Min Temperature 27 °F 24 °F -8 °F (2000)
Degree Days  
Heating Degree Days 31 33  
Month to date heating degree days 713 682  
Since 1 July heating degree days 1358 1563  
Cooling Degree Days 0 0  
Month to date cooling degree days 0  
Year to date cooling degree days 363  
Moisture  
Dew Point 24 °F    
Average Humidity 71    
Maximum Humidity 89    
Minimum Humidity 52    
Precipitation  
Precipitation 0.01 in 0.09 in 0.94 in (2004)
Month to date precipitation 0.55 2.47  
Year to date precipitation 26.44 31.97  
Sea Level Pressure  
Sea Level Pressure 29.65 in    
Wind  
Wind Speed 17 mph (WSW)    
Max Wind Speed 28 mph    
Max Gust Speed 37 mph    
Visibility 8 miles    
Events Snow    
T = Trace of Precipitation, MM = Missing Value Source: NWS Daily Summary

Daily Weather History Graph

Daily Weather History Graph

Search for Another Location

Airport or City:

Trip Planner

Search our weather history database for the weather conditions in past years. The results will help you decide how hot, cold, wet, or windy it might be!

Date:

Astronomy

Nov. 24, 2012 Rise Set
Actual Time 7:09 AM EST 4:22 PM EST
Civil Twilight 6:36 AM EST 4:55 PM EST
Nautical Twilight 6:00 AM EST 5:31 PM EST
Astronomical Twilight 5:25 AM EST 6:06 PM EST
Moon 2:13 PM EST (11/24) 3:16 AM EST (11/24)
Length of Visible Light 10h 18m
Length of Day
9h 13m
Waxing Gibbous, 87% of the Moon is Illuminated
Nov 24
Waxing Gibbous
Nov 28
Full
Dec 6
Last Quarter
Dec 13
New
Dec 20
First Quarter

Hourly Weather History & Observations

Time (EST) Temp. Windchill Dew Point Humidity Pressure Visibility Wind Dir Wind Speed Gust Speed Precip Events Conditions
12:06 AM 41.0 °F 31.6 °F 35.6 °F 81% 29.57 in 10.0 mi SW 20.7 mph 29.9 mph N/A   Overcast
12:53 AM 39.0 °F 29.9 °F 28.9 °F 67% 29.59 in 10.0 mi SW 17.3 mph 29.9 mph 0.01 in   Overcast
1:53 AM 37.9 °F 29.6 °F 28.0 °F 68% 29.59 in 10.0 mi SW 13.8 mph 19.6 mph N/A   Overcast
2:48 AM 33.8 °F 23.9 °F 30.2 °F 87% 29.57 in 3.0 mi SSW 15.0 mph 24.2 mph 0.00 in Snow Light Snow
2:53 AM 34.0 °F 24.2 °F 30.9 °F 89% 29.58 in 4.0 mi SW 15.0 mph - 0.00 in Snow Light Snow
3:01 AM 33.8 °F 25.3 °F 30.2 °F 87% 29.56 in 9.0 mi SSW 11.5 mph 20.7 mph 0.00 in   Mostly Cloudy
3:53 AM 34.0 °F 24.6 °F 30.0 °F 85% 29.56 in 10.0 mi SSW 13.8 mph 21.9 mph 0.00 in   Partly Cloudy
4:53 AM 34.0 °F 25.5 °F 30.0 °F 85% 29.56 in 10.0 mi SSW 11.5 mph - N/A   Overcast
5:53 AM 35.1 °F 25.5 °F 28.9 °F 78% 29.56 in 10.0 mi SSW 15.0 mph 21.9 mph N/A   Overcast
6:53 AM 35.1 °F 25.5 °F 27.0 °F 72% 29.57 in 10.0 mi SW 15.0 mph 20.7 mph N/A   Overcast
7:25 AM 35.6 °F 27.5 °F 26.6 °F 70% 29.57 in 6.0 mi WSW 11.5 mph 19.6 mph 0.00 in Snow Light Snow
7:37 AM 33.8 °F 25.3 °F 30.2 °F 87% 29.58 in 2.0 mi West 11.5 mph 24.2 mph 0.00 in Snow Light Snow
7:45 AM 33.8 °F 25.8 °F 30.2 °F 87% 29.59 in 9.0 mi West 10.4 mph - 0.00 in   Overcast
7:53 AM 34.0 °F 22.1 °F 27.0 °F 75% 29.61 in 10.0 mi WNW 21.9 mph 28.8 mph 0.00 in Snow Light Snow
8:04 AM 33.8 °F 23.9 °F 24.8 °F 70% 29.60 in 9.0 mi WNW 15.0 mph 29.9 mph 0.00 in   Overcast
8:53 AM 33.1 °F 22.6 °F 23.0 °F 66% 29.62 in 10.0 mi West 16.1 mph 25.3 mph 0.00 in   Overcast
9:53 AM 34.0 °F 22.4 °F 21.0 °F 59% 29.65 in 10.0 mi West 20.7 mph 31.1 mph N/A   Overcast
10:53 AM 34.0 °F 23.0 °F 21.0 °F 59% 29.66 in 10.0 mi West 18.4 mph 28.8 mph N/A   Overcast
11:53 AM 35.1 °F 24.8 °F 19.9 °F 54% 29.65 in 10.0 mi West 17.3 mph 25.3 mph N/A   Scattered Clouds
12:53 PM 34.0 °F 22.4 °F 19.0 °F 54% 29.65 in 10.0 mi West 20.7 mph 29.9 mph N/A   Overcast
1:53 PM 32.0 °F 21.2 °F 21.9 °F 66% 29.67 in 5.0 mi WNW 16.1 mph 26.5 mph 0.00 in Snow Light Snow
1:57 PM 30.2 °F 17.8 °F 23.0 °F 75% 29.65 in 1.5 mi West 19.6 mph 27.6 mph 0.00 in Snow Light Snow
2:04 PM 30.2 °F 18.5 °F 24.8 °F 80% 29.65 in 1.0 mi West 17.3 mph 27.6 mph 0.00 in Snow Light Snow
2:08 PM 30.2 °F 19.3 °F 24.8 °F 80% 29.65 in 2.5 mi West 15.0 mph - 0.00 in Snow Light Snow
2:15 PM 30.2 °F 20.2 °F 24.8 °F 80% 29.65 in 9.0 mi West 12.7 mph 20.7 mph 0.00 in   Overcast
2:53 PM 32.0 °F 20.5 °F 21.0 °F 64% 29.67 in 10.0 mi West 18.4 mph 28.8 mph 0.00 in   Overcast
3:53 PM 32.0 °F 20.5 °F 19.0 °F 59% 29.69 in 10.0 mi West 18.4 mph 27.6 mph 0.00 in   Mostly Cloudy
4:53 PM 30.9 °F 18.4 °F 19.0 °F 61% 29.71 in 10.0 mi West 20.7 mph 32.2 mph N/A   Mostly Cloudy
5:53 PM 30.0 °F 18.7 °F 19.0 °F 64% 29.73 in 10.0 mi West 16.1 mph 28.8 mph N/A   Mostly Cloudy
6:53 PM 30.0 °F 16.9 °F 19.0 °F 64% 29.74 in 10.0 mi West 21.9 mph 34.5 mph N/A   Partly Cloudy
7:53 PM 30.0 °F 17.9 °F 18.0 °F 61% 29.76 in 10.0 mi West 18.4 mph 28.8 mph N/A   Overcast
8:53 PM 30.0 °F 16.6 °F 18.0 °F 61% 29.77 in 10.0 mi West 23.0 mph 28.8 mph N/A   Overcast
9:53 PM 28.9 °F 17.7 °F 18.0 °F 64% 29.78 in 10.0 mi West 15.0 mph 24.2 mph N/A   Overcast
10:53 PM 28.9 °F 16.5 °F 16.0 °F 58% 29.78 in 10.0 mi WNW 18.4 mph 31.1 mph N/A   Overcast
11:53 PM 28.0 °F 16.5 °F 15.1 °F 58% 29.80 in 10.0 mi West 15.0 mph 27.6 mph N/A   Overcast